Location: Hylvaty SDH
(49.9612°N, 16.4057°E)
Time: 01:09:17
(UTC+01:00)

Transit 4A - Pass Details

Date: 09 August 2020
Orbit: 864 x 981 km, 66.8° (Epoch: 15 January)

Event Time Altitude Azimuth Distance (km) Brightness Sun altitude
Rises 12:38:08 0° 259° (W) 3,512 10.9 55.4°
Reaches altitude 10° 12:40:59 10° 271° (W) 2,593 10.3 55.5°
Maximum altitude 12:46:07 28° 329° (NNW) 1,665 9.3 55.6°
Drops below altitude 10° 12:51:24 10° 28° (NNE) 2,672 10.1 55.6°
Sets 12:54:24 0° 39° (NE) 3,638 10.7 55.7°
